Weather History for Okha, Russia

Change the Weather History Date:

Friday, January 25, 2013

  Actual Average Record
Temperature  
Mean Temperature 32 °F -  
Max Temperature 91 °F - - ()
Min Temperature -27 °F - - ()
Degree Days  
Heating Degree Days 33    
Moisture  
Dew Point -21 °F    
Average Humidity 43    
Maximum Humidity 92    
Minimum Humidity 4    
Precipitation  
Precipitation 0.00 in - - ()
Sea Level Pressure  
Sea Level Pressure 30.08 in    
Wind  
Wind Speed 4 mph ()    
Max Wind Speed 9 mph    
Max Gust Speed -    
T = Trace of Precipitation, MM = Missing Value Source: Averaged Metar Reports

Daily Weather History Graph

Daily Weather History Graph

Search for Another Location

Airport:

Trip Planner

Search our weather history database for the weather conditions in past years. The results will help you decide how hot, cold, wet, or windy it might be!

Date:

Astronomy

Jan. 25, 2013 Rise Set
Actual Time 9:25 AM SAKT 5:57 PM SAKT
Civil Twilight 8:45 AM SAKT 6:36 PM SAKT
Nautical Twilight 8:02 AM SAKT 7:19 PM SAKT
Astronomical Twilight 7:21 AM SAKT 8:00 PM SAKT
Moon 4:14 PM SAKT (1/25) 7:42 AM SAKT (1/25)
Length of Visible Light 9h 50m
Length of Day
8h 32m
Waxing Gibbous, 96% of the Moon is Illuminated
Jan 25
Waxing Gibbous
Jan 27
Full
Feb 4
Last Quarter
Feb 10
New
Feb 18
First Quarter

Hourly Weather History & Observations

Time (SAKT) Temp. Windchill Dew Point Humidity Pressure Visibility Wind Dir Wind Speed Gust Speed Precip Events Conditions
7:00 AM 91.4 °F - -31.0 °F 4% 30.06 in - NW 2.2 mph - N/A   Clear
7:30 AM -27.4 °F - -31.0 °F 83% 30.06 in - NW 2.2 mph - N/A   Clear
8:00 AM 89.6 °F - -29.2 °F 4% 30.06 in - NW 4.5 mph - N/A   Clear
8:30 AM -25.6 °F -39.5 °F -29.2 °F 83% 30.06 in - WNW 4.5 mph - N/A   Clear
9:00 AM 91.4 °F - -31.0 °F 4% 30.06 in - WNW 4.5 mph - N/A   Clear
9:30 AM -27.4 °F - -31.0 °F 83% 30.06 in - NW 2.2 mph - N/A   Clear
10:00 AM 91.4 °F - -31.0 °F 4% 30.06 in - NW 2.2 mph - N/A   Clear
10:30 AM -27.4 °F -41.6 °F -31.0 °F 83% 30.06 in - NW 4.5 mph - N/A   Clear
11:00 AM 87.8 °F - -29.2 °F 4% 30.06 in - NW 6.7 mph - N/A   Clear
11:30 AM -20.2 °F -37.0 °F -23.8 °F 83% 30.09 in - NW 6.7 mph - N/A   Clear
12:00 PM 82.4 °F - -22.0 °F 4% 30.09 in - NNW 4.5 mph - N/A   Clear
12:30 PM -13.0 °F -24.8 °F -14.8 °F 92% 30.09 in - NW 4.5 mph - N/A   Clear
1:00 PM 73.4 °F - -13.0 °F 4% 30.09 in - NW 4.5 mph - N/A   Clear
1:30 PM -9.4 °F -24.0 °F -11.2 °F 92% 30.09 in - NW 6.7 mph - N/A   Clear
2:00 PM 71.6 °F - -11.2 °F 4% 30.09 in - NW 6.7 mph - N/A   Clear
2:30 PM -7.6 °F -21.9 °F -11.2 °F 84% 30.09 in - NW 6.7 mph - N/A   Clear
3:00 PM 71.6 °F - -11.2 °F 4% 30.09 in - NW 6.7 mph - N/A   Clear
3:30 PM -7.6 °F -21.9 °F -11.2 °F 84% 30.09 in - NW 6.7 mph - N/A   Clear
4:00 PM 71.6 °F - -13.0 °F 4% 30.09 in - NW 8.9 mph - N/A   Clear
4:30 PM -9.4 °F -26.6 °F -13.0 °F 84% 30.12 in - NW 8.9 mph - N/A   Clear
5:00 PM 73.4 °F - -14.8 °F 4% 30.12 in - NW 6.7 mph - N/A   Clear